Regional Weather Roundup
Issued by NWS

Home | Current Version | Previous Version | Text Only | Print | Product List | Glossary On
Versions: 1 2 3 4 5 6 7 8 9 10 11 12 13 14 15 16 17 18 19 20 21 22 23 24 25 26 27 28 29 30 31 32 33 34 35 36 37 38 39 40 41 42 43 44 45 46 47
000
ASUS45 KREV 030510
RWRNV
NEVADA REGIONAL WEATHER ROUNDUP
NATIONAL WEATHER SERVICE RENO NV
1000 PM PDT WED SEP 02 2015

NOTE: "FAIR" INDICATES FEW OR NO CLOUDS BELOW 12,000 FEET WITH NO
SIGNIFICANT WEATHER AND/OR OBSTRUCTIONS TO VISIBILITY.

NVZ001-003-004-030600-
WESTERN NEVADA

CITY           SKY/WX    TMP DP  RH WIND       PRES   REMARKS
RENO           PTCLDY    68  35  29 SE9       29.95R
CARSON CITY    FAIR      68  32  26 SE6G18    29.96S
MINDEN         FAIR      64  32  29 E8        29.97S
PYRAMID LAKE     N/A     72 N/A N/A S9          N/A
FALLON         PTCLDY    69  29  22 N6        29.88R
LOVELOCK       CLEAR     72  28  19 W8        29.87R
HAWTHORNE      CLEAR     79  34  19 SW7       29.86R
$$

NVZ002-CAZ072-073-030600-
NORTHERN AND CENTRAL SIERRA

CITY           SKY/WX    TMP DP  RH WIND       PRES   REMARKS
S. LAKE TAHOE  CLEAR     59  37  44 S9        30.08S
TRUCKEE        PTCLDY    54  36  50 S7        30.07S
SQUAW VLY 8000   N/A     48  36  61 S6          N/A
SUSANVILLE     CLEAR     66  36  32 SW13G18   29.93S
BLUE CANYON    PTCLDY    57  38  48 SE6       30.05S
MAMMOTH LAKES  FAIR      57  36  44 W5        30.12S
BRIDGEPORT     FAIR      59  34  39 W9        30.07S
$$

NVZ030-031-036-030600-
NORTHERN NEVADA

CITY           SKY/WX    TMP DP  RH WIND       PRES   REMARKS
ELKO           CLEAR     67  23  19 CALM      29.89R
WINNEMUCCA     PTCLDY    72  32  23 W14G24    29.87R
WENDOVER       CLEAR     82  28  14 SW17      29.82S
$$

NVZ035-037-030600-
CENTRAL NEVADA

CITY           SKY/WX    TMP DP  RH WIND       PRES   REMARKS
ELY            CLEAR     64  34  32 S12       30.04S
EUREKA           N/A     71  13  10 S10       29.97S
$$

NVZ013-014-030600-
SOUTH CENTRAL NEVADA

CITY           SKY/WX    TMP DP  RH WIND       PRES   REMARKS
TONOPAH        CLEAR     68  21  16 S9        30.00S
$$

NVZ017-020-022-030600-
SOUTHERN NEVADA

CITY           SKY/WX    TMP DP  RH WIND       PRES   REMARKS
LAS VEGAS      PTCLDY    90  35  14 S14       29.80R
N. LAS VEGAS   PTCLDY    90  38  16 S12       29.83R
NELLIS AFB     PTCLDY    90  39  16 S20       29.81R
HENDERSON      PTCLDY    87  39  18 S15G21    29.88
MERCURY        PTCLDY    82  35  18 SE7       29.88S
$$


USA.gov is the U.S. government's official web portal to all federal, state and local government web resources and services.